Location: Chenereilles
(45.4866°N, 4.0790°E)
Time: 19:06:20
(UTC+00:00)

Cosmos 2369 Rocket - Pass Details

Date: 12 November 2019
Orbit: 830 x 851 km, 71.0° (Epoch: 12 December)

Event Time Altitude Azimuth Distance (km) Brightness Sun altitude
Rises 17:22:51 0° 255° (WSW) 3,377 7.6 -11.7°
Reaches altitude 10° 17:26:07 10° 274° (W) 2,444 5.9 -12.3°
Maximum altitude 17:29:50 18° 316° (NW) 1,949 4.5 -12.9°
Drops below altitude 10° 17:33:35 10° 359° (N) 2,447 4.5 -13.5°
Sets 17:36:52 0° 18° (NNE) 3,384 5.1 -14.1°
